Location: Bergnerzell
(49.1816°N, 10.2565°E)
Time: 15:48:25
(UTC+00:00)

Meteor 1-24 Rocket - Pass Details

Date: 12 August 2024
Orbit: 790 x 926 km, 81.3° (Epoch: 08 September)

Event Time Altitude Azimuth Distance (km) Brightness Sun altitude
Rises 02:44:32 0° 343° (NNW) 3,507 7.3 -12.2°
Reaches altitude 10° 02:47:02 10° 338° (NNW) 2,581 6.5 -11.9°
Maximum altitude 02:52:39 48° 267° (W) 1,187 4.1 -11.2°
Drops below altitude 10° 02:58:22 10° 195° (SSW) 2,616 5.8 -10.4°
Enters shadow 03:00:09 - 191° (S) 3,270 6.3 -10.2°
